Hourly Data Report for November 25, 2021

MOUNT FOREST (AUT)
ONTARIO
Current Station Operator: ECCC - MSC

43°59'00.000" N
80°45'00.000" W
414.50 m
6145504
71631
WLS

Download Data

Hourly Data (November 2021)
Hourly Data Report for November 25, 2021
TIME
LST
Temp Definition
°C
Dew Point Definition
°C
Rel Hum Definition
%
Precip. Amount Definition
mm

Wind Dir Definition
10's deg

Wind Spd Definition
km/h
Visibility Definition
km
Stn Press Definition
kPa
Hmdx Definition


Wind Chill Definition


Weather Definition


00:00 4.6 0.4 75 0.0 20 12   96.70     LegendNANA
01:00 4.9 0.3 72 0.0 22 14   96.63     LegendNANA
02:00 4.7 0.7 75 0.0 21 16   96.59     LegendNANA
03:00 4.2 1.8 84 0.0 21 16   96.58     LegendNANA
04:00 3.7 2.7 93 0.2 21 14   96.58     LegendNANA
05:00 3.5 2.9 95 0.8 21 12   96.51     LegendNANA
06:00 3.6 3.1 96 0.4 21 11   96.50     LegendNANA
07:00 3.7 3.2 97 0.4 22 10   96.46     LegendNANA
08:00 3.7 3.3 97 0.3 21 8   96.42     LegendNANA
09:00 3.9 3.5 98 0.0 19 9   96.38     LegendNANA
10:00 4.1 3.8 98 0.0 21 10   96.34     LegendNANA
11:00 4.3 4.1 99 0.0 21 10   96.30     LegendNANA
12:00 4.5 4.3 99 0.0 23 8   96.17     LegendNANA
13:00 4.4 4.2 99 0.0 24 8   96.09     LegendNANA
14:00 4.4 4.2 99 0.1 24 6   96.04     LegendNANA
15:00 4.4 4.3 99 0.6 28 5   96.01     LegendNANA
16:00 3.6 3.4 98 0.2 31 8   96.04     LegendNANA
17:00 3.5 3.1 97 0.1 31 7   96.04     LegendNANA
18:00 3.3 2.7 96 0.4 30 10   96.02     LegendNANA
19:00 3.0 2.3 95 0.1 30 12   96.01     LegendNANA
20:00 2.6 1.5 93 0.0 31 16   95.98     LegendNANA
21:00 2.1 0.8 91 0.0 31 17   95.93     LegendNANA
22:00 1.5 0.2 91 0.0 31 15   95.88     LegendNANA
23:00 0.9 -0.2 92 0.0 29 13   95.84     LegendNANA

Notes on Data Quality.

Legend

  • E = Estimated
  • M = Missing
  • NA = Not Available*
  • [empty] = Indicates an unobserved value
Date modified: